Back to catalog

DELTA 1 DEB

AliveSSO
NORAD 42641·DEBRIS·🇺🇸 United States

Launched Jun 12, 1975 from Vandenberg Space Force Base

Loading…

Next Passes (next 24 hours)

TLE

FreshSource: Space-Track

Epoch: Sep 14, 2026, 11:17 UTC

1 42641U 75052MA  26257.47064966  .00000140  00000-0  35486-3 0  9994
2 42641  99.7979 340.3764 0059973 254.5747 168.6034 13.35694667624250

Track DELTA 1 DEB in real time with AllMySat

Download on the App Store